Location: Cisewo
(53.3833°N, 14.9000°E)
Time: 13:58:49
(UTC+00:00)

Cosmos 1470 Rocket - Pass Details

Date: 18 April 2021
Orbit: 604 x 633 km, 82.5° (Epoch: 16 May)

Event Time Altitude Azimuth Distance (km) Brightness Sun altitude
Rises 22:17:08 0° 352° (N) 2,896 8.4 -24.8°
Reaches altitude 10° 22:19:26 10° 359° (N) 1,990 7.2 -24.9°
Enters shadow 22:23:36 46° 70° (ENE) 843 4.2 -25.0°
